Kuchera_Ratio
0.0 0.0 0.0 0.0 0.0 0.0 0.0 0.0 0.0 0.0 0.0 0.0 0.0 0.0 0.0 0.0 0.0 0.0 0.0 0.0 0.0 0.0 0.0 0.0 0.0 0.0 0.0 0.0 0.0 0.0 0.0 0.0 0.0 0.0 0.0 0.0 0.0 0.0 0.0 0.0 0.0 0.0 0.0 0.0 0.0 0.0 0.0
0.0 0.0 0.0 0.0 0.0 0.0 0.0 0.0 0.0 0.0 0.0 0.0 0.0 0.0 0.0 0.0 0.0 0.0 0.0 0.0 0.0 0.0 0.0 0.0 0.0 0.0 0.0 0.0 0.0 0.0 0.0 0.0 0.0 0.0 0.0 0.0 0.0 0.0 0.0 0.0 0.0 0.0 0.0 0.0 0.0 0.0 0.0
0.0 0.0 0.0 0.0 0.0 0.0 0.0 0.0 0.0 0.0 0.0 0.0 0.0 0.0 0.0 0.0 0.0 0.0 0.0 0.0 0.0 0.0 0.0 0.0 0.0 0.0 0.0 0.0 0.0 0.0 0.0 0.0 0.0 0.0 0.0 0.0 0.0 0.0 0.0 0.0 0.0 0.0 0.0 0.0 0.0 0.0 0.0
0.0 0.0 0.0 0.0 0.0 0.0 0.0 0.0 0.0 0.0 0.0 0.0 0.0 0.0 0.0 0.0 0.0 0.0 0.0 0.0 0.0 0.0 0.0 0.0 0.0 0.0 0.0 0.0 0.0 0.0 0.0 0.0 0.0 0.0 0.0 0.0 0.0 0.0 0.0 0.0 0.0 0.0 0.0 0.0 0.0 0.0 0.0
0.0 0.0 0.0 0.0 0.0 0.0 0.0 0.0 0.0 0.0 0.0 0.0 0.0 0.0 0.0 0.0 0.0 0.0 0.0 0.0 0.0 0.0 0.0 0.0 0.0 0.0 0.0 0.0 0.0 0.0 0.0 0.0 0.0 0.0 0.0 0.0 0.0 0.0 0.0 0.0 0.0 0.0 0.0 0.0 0.0 0.0 0.0
0.0 0.0 0.0 0.0 0.0 0.0 0.0 0.0 0.0 0.0 0.0 0.0 0.0 0.0 0.0 0.0 0.0 0.0 0.0 0.0 0.0 0.0 0.0 0.0 0.0 0.0 0.0 0.0 0.0 0.0 0.0 0.0 0.0 0.0 0.0 0.0 0.0 0.0 0.0 0.0 0.0 0.0 0.0 0.0 0.0 0.0 0.0
0.0 0.0 0.0 0.0 0.0 0.0 0.0 0.0 0.0 0.0 0.0 0.0 0.0 0.0 0.0 0.0 0.0 0.0 0.0 0.0 0.0 0.0 0.0 0.0 0.0 0.0 0.0 0.0 0.0 0.0 0.0 0.0 0.0 0.0 0.0 0.0 0.0 0.0 0.0 0.0 0.0 0.0 0.0 0.0 0.0 0.0 0.0
0.0 0.0 0.0 0.0 0.0 0.0 0.0 0.0 0.0 0.0 0.0 0.0 0.0 0.0 0.0 0.0 0.0 0.0 0.0 0.0 0.0 0.0 0.0 0.0 0.0 0.0 0.0 0.0 0.0 0.0 0.0 0.0 0.0 0.0 0.0 0.0 0.0 0.0 0.0 0.0 0.0 0.0 0.0 0.0 0.0 0.0 0.0
0.0 0.0 0.0 0.0 0.0 0.0 0.0 0.0 0.0 0.0 0.0 0.0 0.0 0.0 0.0 0.0 0.0 0.0 0.0 0.0 0.0 0.0 0.0 0.0 0.0 0.0 0.0 0.0 0.0 0.0 0.0 0.0 0.0 0.0 0.0 0.0 0.0 0.0 0.0 0.0 0.0 0.0 0.0 0.0 0.0 0.0 0.0
0.0 0.0 0.0 0.0 0.0 0.0 0.0 0.0 0.0 0.0 0.0 0.0 0.0 0.0 0.0 0.0 0.0 0.0 0.0 0.0 0.0 0.0 2.5 2.8 0.0 0.0 0.0 0.0 0.0 0.0 0.0 0.0 0.0 0.0 0.0 0.0 0.0 0.0 0.0 0.0 0.0 0.0 0.4 0.3 0.6 0.2 2.2
0.0 0.0 0.0 0.0 0.0 0.0 0.0 0.0 0.0 0.0 0.0 0.0 0.0 0.0 0.0 0.0 0.0 0.0 0.0 0.0 0.0 0.0 12.2 3.9 1.2 0.0 0.0 0.0 1.4 0.0 0.0 0.0 0.1 0.0 0.1 1.8 2.3 2.1 2.3 0.8 1.3 1.4 2.5 2.8 2.9 3.2 4.3
0.0 0.0 0.0 0.0 0.0 0.0 0.0 0.0 0.0 0.0 0.0 0.0 0.0 0.0 0.0 0.0 0.0 0.0 0.0 0.0 0.0 6.0 12.8 7.2 2.6 2.0 1.8 2.1 2.6 0.6 0.0 0.0 0.0 1.7 3.2 4.3 2.8 4.1 3.3 3.5 3.5 3.6 4.6 5.3 5.9 6.7 11.1
0.0 0.0 0.0 0.0 0.0 0.0 0.0 0.0 0.0 0.0 0.0 0.0 0.0 0.0 0.0 0.0 0.0 0.0 0.0 0.0 6.7 11.7 4.9 7.9 7.5 5.2 5.9 7.8 7.0 5.8 5.8 4.2 3.3 7.5 7.2 6.3 6.2 5.7 6.2 6.4 7.2 5.4 4.5 8.9 12.4 12.4 11.4
0.0 0.0 0.0 0.0 0.0 0.0 0.0 0.0 0.0 0.0 0.0 0.0 0.0 0.0 0.0 0.0 0.0 0.0 0.0 2.2 12.6 4.3 6.7 6.5 7.2 6.8 8.4 6.9 8.9 8.5 7.4 7.7 5.6 4.7 4.9 7.3 10.0 8.5 7.9 7.0 6.2 8.7 7.1 6.0 12.4 11.6 9.8
0.0 0.0 0.0 0.0 0.0 0.0 0.0 0.0 0.0 0.0 0.0 0.0 0.0 0.0 0.0 0.0 0.0 0.0 0.0 9.3 5.2 2.7 2.2 3.7 6.8 7.2 7.9 7.6 8.3 8.9 8.7 7.3 4.2 3.6 1.0 6.7 8.7 8.3 9.4 10.6 8.8 11.7 11.7 8.8 11.3 13.2 12.9
0.0 0.0 0.0 0.0 0.0 0.0 0.0 0.0 0.0 0.0 0.0 0.0 0.0 0.0 0.0 0.0 0.0 0.0 6.5 7.7 3.4 0.0 2.2 3.7 1.3 3.7 6.0 5.4 7.0 6.2 6.7 3.9 2.5 2.3 1.2 4.1 8.3 10.3 11.7 12.1 12.3 11.6 11.4 12.6 12.1 14.0 13.8
0.0 0.0 0.0 0.0 0.0 0.0 0.0 0.0 0.0 0.0 0.0 0.0 0.0 1.9 0.0 0.0 0.0 2.6 13.3 9.8 1.4 0.0 0.0 1.5 3.4 4.5 5.7 5.2 6.6 6.0 6.4 3.0 3.4 3.3 5.0 4.4 4.9 12.6 12.8 12.5 10.2 12.6 12.9 11.0 11.0 11.9 12.9
0.0 0.0 0.0 0.0 0.0 0.0 0.0 0.0 0.0 0.0 0.0 0.0 0.0 7.7 0.0 0.0 6.5 8.5 11.3 5.8 0.0 0.0 0.0 0.0 1.1 1.9 3.9 3.8 4.9 7.2 4.1 2.1 1.7 1.3 5.5 4.5 7.6 11.7 11.0 10.4 11.7 12.1 11.2 9.5 10.3 12.7 12.7
0.0 0.0 0.0 0.0 0.0 0.0 0.0 0.0 0.0 0.0 0.0 0.0 5.8 8.1 0.0 0.0 13.6 13.7 11.2 7.2 3.3 3.7 0.9 1.7 0.8 0.6 2.7 3.7 5.0 4.8 2.4 1.7 1.3 0.8 0.1 3.4 9.4 13.1 14.5 14.9 14.0 12.8 10.2 10.4 10.2 10.7 10.5
0.0 0.0 0.0 0.0 0.0 0.0 0.0 0.0 0.0 0.0 0.0 0.0 5.8 12.0 6.5 5.2 9.9 10.9 12.3 10.2 7.6 0.5 0.0 0.0 1.0 2.0 4.6 6.0 4.6 4.2 4.5 3.1 2.6 2.9 0.0 1.1 4.9 10.1 11.4 8.0 8.5 12.4 10.3 9.7 11.7 13.9 13.5
0.0 0.0 0.0 0.0 0.0 0.0 0.0 0.0 0.0 0.0 0.0 0.0 4.3 11.2 8.2 12.8 11.9 13.0 9.9 7.6 8.0 6.3 1.9 1.1 4.2 3.1 2.5 7.6 7.3 6.9 6.6 4.8 4.6 4.3 5.8 4.7 9.4 7.8 5.9 6.0 6.3 6.3 5.3 6.9 11.7 10.5 14.0
0.0 0.0 0.0 0.0 0.0 0.0 0.0 0.0 0.0 0.0 0.0 0.0 5.7 9.5 10.6 10.8 6.5 10.6 9.3 12.1 9.9 6.5 4.0 5.6 6.8 2.9 3.8 3.2 1.0 6.1 3.5 5.9 2.8 7.3 8.3 9.9 12.0 9.1 12.0 12.0 12.3 11.9 9.2 9.5 7.6 9.5 11.3
0.0 0.0 0.0 0.0 0.0 0.0 0.0 0.0 0.0 0.0 0.0 0.0 0.0 0.0 2.4 8.9 12.5 12.9 11.8 8.4 8.6 2.3 1.5 0.0 1.1 4.7 6.9 0.5 0.0 0.0 0.0 0.0 1.0 0.7 9.8 9.4 11.4 13.0 14.3 13.8 14.0 16.0 11.7 12.2 12.2 10.3 7.4
0.0 0.0 0.0 0.0 0.0 0.0 0.0 0.0 0.0 0.0 0.0 0.0 0.0 0.0 5.2 9.7 10.5 10.3 5.1 7.2 7.4 4.5 4.7 0.6 0.0 5.6 1.8 0.0 0.0 3.3 4.7 3.8 3.7 6.6 4.9 12.7 12.9 13.3 16.0 15.9 19.7 8.5 0.7 0.2 7.4 6.3 8.9
0.0 0.0 0.0 0.0 0.0 0.0 0.0 0.0 0.0 0.0 0.0 0.0 0.0 0.0 7.5 8.6 3.7 6.7 6.8 6.1 6.1 2.7 3.2 1.7 0.0 0.0 0.0 1.8 9.7 12.9 13.0 12.3 10.4 8.0 9.8 7.5 12.6 15.1 16.3 16.6 12.4 10.1 5.1 9.1 9.7 7.9 3.2
0.0 0.0 0.0 0.0 0.0 0.0 0.0 0.0 0.0 0.0 0.0 0.0 0.0 0.0 7.1 8.5 6.8 1.1 4.3 4.4 8.4 11.4 9.1 4.6 0.0 0.0 0.4 7.9 12.2 15.5 16.5 14.7 16.7 13.4 8.5 11.0 6.7 13.7 15.2 17.4 18.7 8.2 1.2 0.0 1.6 13.1 0.2
0.0 0.0 0.0 0.0 0.0 0.0 0.0 0.0 0.0 0.0 0.0 0.0 0.0 0.0 5.3 10.3 5.9 1.1 8.2 8.1 3.3 4.1 12.2 8.6 4.6 7.1 3.3 11.4 13.8 14.7 14.9 12.6 17.7 16.7 15.1 14.3 14.5 15.4 15.0 15.9 13.7 3.5 3.0 3.4 16.3 11.5 0.0
0.0 0.0 0.0 0.0 0.0 0.0 0.0 0.0 0.0 0.0 0.0 0.0 0.5 0.0 4.1 8.1 5.9 1.3 0.0 5.5 6.7 4.4 10.0 7.8 9.0 8.7 10.5 13.4 13.6 13.5 13.9 14.7 13.7 12.5 13.7 14.6 15.1 15.8 14.7 16.3 17.5 8.7 8.1 12.8 5.7 1.0 0.3
0.0 0.0 0.0 0.0 0.0 0.0 0.0 0.0 0.0 0.0 0.0 0.0 0.7 0.0 0.0 6.7 6.9 1.7 0.0 0.0 0.0 0.0 4.2 6.9 7.1 8.0 7.5 12.1 11.4 11.5 12.9 13.5 14.1 16.0 13.2 14.4 12.8 14.0 13.4 13.1 5.6 2.8 5.9 8.2 7.1 4.8 4.0